Flag for U.S.A. Weather past 2 weeks in Orlando, Florida, U.S.A.

Now
73 °F

Clear.


Feels Like: 72 °F
Forecast: 71 / 86 °F
Wind: 5 mph from East

Location: Orlando Executive Airport

Current Time: May 28, 2015 at 2:58:33 AM

Latest Report: May 28, 2015 at 1:53 AM


Visibility: 10 mi

Pressure: 30.15 "Hg

Humidity: 84%

Dew point: 68 °F

Location of OrlandoLocation

Historic Weather in Orlando — Graph

°F

Orlando temperature yesterday

Maximum temperature yesterday: 89 °F (at 2:53 PM)
Minimum temperature yesterday: 72 °F (at 6:53 AM)
Average temperature yesterday: 80 °F

Past Weeks' High & Low Weather Summary

 TemperatureHumidityPressure
High94 °F (May 20, 3:53 PM)94% (May 13, 4:53 AM)30.26 "Hg (May 13, 4:53 AM)
Low69 °F (May 16, 3:53 AM)37% (May 20, 3:53 PM)29.91 "Hg (May 20, 4:53 PM)
Average80 °F70%30.14 "Hg
* Reported May 13 1:53 AM — May 28 1:53 AM, Orlando, Weather by CustomWeather, © 2015

Note: Actual official high and low records may vary slightly from our data, if they occured in-between our weather recording intervals... More about our weather records

Advertising

Orlando weather history for previous 24 hours

 ConditionsComfort  
Time TempWeatherWind HumidityBarometerVisibility
1:53 AM
Thu, May 28
73 °FClear.5 mph84%30.15 "Hg10 mi
12:53 AM74 °FClear.5 mph82%30.16 "Hg10 mi
11:53 PM
Wed, May 27
74 °FClear.5 mph82%30.17 "Hg10 mi
10:53 PM76 °FClear.8 mph77%30.18 "Hg10 mi
9:53 PM77 °FPassing clouds.7 mph74%30.16 "Hg10 mi
8:53 PM79 °FBroken clouds.10 mph69%30.16 "Hg10 mi
7:53 PM81 °FBroken clouds.10 mph62%30.14 "Hg10 mi
6:53 PM83 °FPassing clouds.16 mph59%30.14 "Hg10 mi
5:53 PM84 °FScattered clouds.16 mph53%30.13 "Hg10 mi
4:53 PM87 °FScattered clouds.16 mph46%30.14 "Hg10 mi
3:53 PM88 °FPassing clouds.12 mph39%30.15 "Hg10 mi
2:53 PM89 °FScattered clouds.10 mph39%30.16 "Hg10 mi
1:53 PM86 °FPartly sunny.7 mph46%30.17 "Hg10 mi
12:53 PM88 °FScattered clouds.15 mph43%30.19 "Hg10 mi
11:53 AM86 °FPartly sunny.12 mph53%30.20 "Hg10 mi
10:53 AM83 °FScattered clouds.10 mph57%30.21 "Hg10 mi
9:53 AM81 °FScattered clouds.N/A65%30.21 "Hg10 mi
8:53 AM80 °FSunny.5 mph67%30.20 "Hg10 mi
7:53 AM76 °FPassing clouds.No wind74%30.18 "Hg10 mi
6:53 AM72 °FClear.5 mph84%30.15 "Hg10 mi
5:53 AM73 °FClear.3 mph81%30.13 "Hg10 mi
4:53 AM73 °FClear.9 mph84%30.13 "Hg10 mi
3:53 AM74 °FClear.9 mph85%30.14 "Hg10 mi
2:53 AM75 °FClear.7 mph85%30.17 "Hg10 mi
Weather by CustomWeather, © 2015

See weather overviewHow to use our weather pages